Location: Middelsbur
(53.6609°N, 7.5020°E)
Time: 12:47:49
(UTC+00:00)

Cosmos 1295 Rocket - Pass Details

Date: 06 July 2020
Orbit: 944 x 994 km, 82.9° (Epoch: 07 August)

Event Time Altitude Azimuth Distance (km) Brightness Sun altitude
Exits shadow 22:29:33 13° 189° (S) 2,440 6.0 -12.5°
Maximum altitude 22:35:02 88° 279° (W) 960 4.5 -12.7°
Drops below altitude 10° 22:41:11 10° 11° (N) 2,680 7.9 -12.9°
Sets 22:43:41 0° 11° (NNE) 3,627 8.8 -13.0°
